When you browse on this site, cookies collect data to enhance your experience and personalize the content and advertising you see.
Visit our Privacy Policy to learn more. By continuing to use the site, you agree to this use of cookies and data.
  • In Austria
  • List of Countries
  • For 7 days
  • Water Temperature
  • Weather Map
  • News
  • Weather Widgets
  • user-avatar
    Login

    Hourly Weather Wroclaw

    Today, 3 April, Friday

    Time Temperature Precipitation Wind Pressure Humidity
    00:00 +2°C° 0 mm 3 mps 745 mmHg 71%
    01:00 +2°C° 0 mm 3 mps 744 mmHg 71%
    02:00 +2°C° 0 mm 3 mps 744 mmHg 74%
    03:00 +2°C° 0 mm 3 mps 744 mmHg 76%
    04:00 +1°C° 0 mm 4 mps 744 mmHg 79%
    05:00 +1°C° 0 mm 4 mps 745 mmHg 78%
    06:00 +2°C° 0 mm 5 mps 746 mmHg 77%
    07:00 +3°C° 0 mm 6 mps 746 mmHg 75%
    08:00 +3°C° 0.1 mm 6 mps 747 mmHg 75%
    09:00 +4°C° 0.1 mm 6 mps 747 mmHg 74%
    10:00 +4°C° 0.1 mm 6 mps 747 mmHg 73%
    11:00 +7°C° 0 mm 6 mps 748 mmHg 65%
    12:00 +8°C° 0 mm 6 mps 748 mmHg 57%
    13:00 +9°C° 0 mm 7 mps 749 mmHg 53%
    14:00 +9°C° 0 mm 6 mps 749 mmHg 51%
    15:00 +9°C° 0 mm 6 mps 749 mmHg 49%
    16:00 +9°C° 0 mm 6 mps 749 mmHg 47%
    17:00 +7°C° 0 mm 5 mps 750 mmHg 53%
    18:00 +7°C° 0 mm 3 mps 751 mmHg 58%
    19:00 +5°C° 0 mm 2 mps 751 mmHg 63%
    20:00 +5°C° 0 mm 2 mps 752 mmHg 67%
    21:00 +4°C° 0 mm 2 mps 752 mmHg 71%
    22:00 +3°C° 0 mm 2 mps 753 mmHg 75%
    23:00 +3°C° 0 mm 2 mps 753 mmHg 78%

    Tomorrow, 4 April, Saturday

    Time Temperature Precipitation Wind Pressure Humidity
    00:00 +3°C° 0 mm 2 mps 754 mmHg 81%
    01:00 +2°C° 0 mm 2 mps 754 mmHg 84%
    02:00 +2°C° 0 mm 2 mps 754 mmHg 85%
    03:00 +2°C° 0 mm 2 mps 755 mmHg 86%
    04:00 +1°C° 0 mm 2 mps 755 mmHg 87%
    05:00 +2°C° 0 mm 2 mps 756 mmHg 84%
    06:00 +3°C° 0 mm 2 mps 756 mmHg 81%
    07:00 +4°C° 0 mm 2 mps 757 mmHg 78%
    08:00 +5°C° 0 mm 2 mps 757 mmHg 71%
    09:00 +7°C° 0 mm 2 mps 757 mmHg 64%
    10:00 +8°C° 0 mm 2 mps 758 mmHg 58%
    11:00 +9°C° 0 mm 2 mps 758 mmHg 57%
    12:00 +9°C° 0 mm 2 mps 758 mmHg 57%
    13:00 +10°C° 0 mm 2 mps 758 mmHg 57%
    14:00 +10°C° 0 mm 2 mps 758 mmHg 57%
    15:00 +10°C° 0 mm 2 mps 758 mmHg 58%
    16:00 +10°C° 0 mm 2 mps 759 mmHg 58%
    17:00 +9°C° 0 mm 2 mps 759 mmHg 62%
    18:00 +8°C° 0 mm 2 mps 759 mmHg 66%
    19:00 +6°C° 0 mm 2 mps 760 mmHg 70%
    20:00 +6°C° 0 mm 2 mps 760 mmHg 70%
    21:00 +6°C° 0 mm 2 mps 761 mmHg 70%
    22:00 +6°C° 0 mm 2 mps 761 mmHg 70%
    23:00 +5°C° 0 mm 2 mps 762 mmHg 71%

    Day after tomorrow, 5 April, Sunday

    Time Temperature Precipitation Wind Pressure Humidity
    00:00 +5°C° 0 mm 2 mps 762 mmHg 73%
    01:00 +4°C° 0 mm 2 mps 762 mmHg 74%
    02:00 +4°C° 0 mm 2 mps 762 mmHg 77%
    03:00 +3°C° 0 mm 2 mps 762 mmHg 80%
    04:00 +3°C° 0 mm 2 mps 762 mmHg 82%
    05:00 +3°C° 0 mm 2 mps 763 mmHg 79%
    06:00 +3°C° 0 mm 3 mps 763 mmHg 76%
    07:00 +4°C° 0 mm 3 mps 763 mmHg 73%
    08:00 +7°C° 0 mm 3 mps 763 mmHg 67%
    09:00 +8°C° 0 mm 4 mps 763 mmHg 61%
    10:00 +10°C° 0 mm 5 mps 763 mmHg 54%
    11:00 +10°C° 0 mm 5 mps 763 mmHg 51%
    12:00 +12°C° 0 mm 5 mps 763 mmHg 49%
    13:00 +13°C° 0 mm 5 mps 763 mmHg 46%
    14:00 +13°C° 0 mm 5 mps 762 mmHg 46%
    15:00 +13°C° 0 mm 5 mps 762 mmHg 47%
    16:00 +14°C° 0 mm 5 mps 761 mmHg 47%
    17:00 +12°C° 0 mm 4 mps 761 mmHg 52%
    18:00 +10°C° 0 mm 4 mps 761 mmHg 58%
    19:00 +7°C° 0 mm 4 mps 761 mmHg 63%
    20:00 +7°C° 0 mm 4 mps 761 mmHg 64%
    21:00 +6°C° 0 mm 4 mps 761 mmHg 65%
    22:00 +6°C° 0 mm 4 mps 761 mmHg 67%
    23:00 +5°C° 0 mm 4 mps 761 mmHg 69%

    6 April, Monday

    Time Temperature Precipitation Wind Pressure Humidity
    00:00 +5°C° 0 mm 4 mps 761 mmHg 71%
    01:00 +4°C° 0 mm 4 mps 761 mmHg 74%
    02:00 +4°C° 0 mm 3 mps 761 mmHg 76%
    03:00 +4°C° 0 mm 3 mps 760 mmHg 77%
    04:00 +3°C° 0 mm 3 mps 760 mmHg 79%
    05:00 +4°C° 0 mm 3 mps 760 mmHg 76%
    06:00 +5°C° 0 mm 4 mps 760 mmHg 73%
    07:00 +6°C° 0 mm 4 mps 760 mmHg 70%
    08:00 +8°C° 0 mm 4 mps 760 mmHg 63%
    09:00 +12°C° 0 mm 4 mps 760 mmHg 57%
    10:00 +14°C° 0 mm 4 mps 760 mmHg 50%
    11:00 +15°C° 0 mm 5 mps 760 mmHg 48%
    12:00 +16°C° 0 mm 5 mps 760 mmHg 45%
    13:00 +17°C° 0 mm 5 mps 760 mmHg 43%
    14:00 +17°C° 0 mm 5 mps 760 mmHg 44%
    15:00 +17°C° 0 mm 5 mps 760 mmHg 45%
    16:00 +17°C° 0 mm 5 mps 760 mmHg 47%
    17:00 +15°C° 0 mm 5 mps 760 mmHg 52%
    18:00 +13°C° 0 mm 4 mps 760 mmHg 56%
    19:00 +11°C° 0 mm 4 mps 760 mmHg 61%
    20:00 +10°C° 0 mm 3 mps 760 mmHg 62%
    21:00 +9°C° 0 mm 3 mps 761 mmHg 64%
    22:00 +8°C° 0 mm 3 mps 761 mmHg 65%
    23:00 +8°C° 0 mm 3 mps 761 mmHg 65%

    7 April, Tuesday

    Time Temperature Precipitation Wind Pressure Humidity
    00:00 +7°C° 0 mm 3 mps 761 mmHg 65%
    01:00 +7°C° 0 mm 3 mps 762 mmHg 65%
    02:00 +6°C° 0 mm 4 mps 762 mmHg 65%
    03:00 +5°C° 0 mm 4 mps 762 mmHg 65%
    04:00 +5°C° 0 mm 4 mps 762 mmHg 65%
    05:00 +6°C° 0 mm 4 mps 762 mmHg 64%
    06:00 +7°C° 0 mm 4 mps 763 mmHg 63%
    07:00 +7°C° 0 mm 4 mps 763 mmHg 62%
    08:00 +10°C° 0 mm 4 mps 763 mmHg 57%
    09:00 +12°C° 0 mm 4 mps 763 mmHg 52%
    10:00 +14°C° 0 mm 4 mps 763 mmHg 46%
    11:00 +16°C° 0 mm 3 mps 763 mmHg 45%
    12:00 +17°C° 0 mm 3 mps 763 mmHg 44%
    13:00 +18°C° 0 mm 3 mps 763 mmHg 43%
    14:00 +19°C° 0 mm 2 mps 763 mmHg 44%
    15:00 +19°C° 0 mm 2 mps 763 mmHg 44%
    16:00 +20°C° 0 mm 1 mps 763 mmHg 45%
    17:00 +18°C° 0 mm 1 mps 763 mmHg 51%
    18:00 +15°C° 0 mm 1 mps 763 mmHg 56%
    19:00 +13°C° 0 mm 1 mps 763 mmHg 62%
    20:00 +13°C° 0 mm 1 mps 763 mmHg 63%
    21:00 +12°C° 0 mm 1 mps 764 mmHg 64%
    22:00 +11°C° 0 mm 1 mps 764 mmHg 65%
    23:00 +10°C° 0 mm 1 mps 764 mmHg 71%

    8 April, Wednesday

    Time Temperature Precipitation Wind Pressure Humidity
    00:00 +10°C° 0 mm 1 mps 764 mmHg 76%
    01:00 +8°C° 0 mm 2 mps 764 mmHg 81%
    02:00 +8°C° 0 mm 2 mps 764 mmHg 85%
    03:00 +7°C° 0 mm 2 mps 764 mmHg 88%
    04:00 +7°C° 0 mm 2 mps 764 mmHg 92%
    05:00 +8°C° 0 mm 2 mps 764 mmHg 91%
    06:00 +9°C° 0 mm 1 mps 764 mmHg 90%
    07:00 +10°C° 0 mm 1 mps 764 mmHg 89%
    08:00 +12°C° 0 mm 1 mps 764 mmHg 83%
    09:00 +13°C° 0 mm 1 mps 764 mmHg 76%
    10:00 +15°C° 0 mm 2 mps 764 mmHg 69%
    11:00 +16°C° 0 mm 2 mps 764 mmHg 65%
    12:00 +17°C° 0 mm 2 mps 763 mmHg 61%
    13:00 +18°C° 0 mm 2 mps 763 mmHg 56%
    14:00 +18°C° 0.1 mm 2 mps 763 mmHg 57%
    15:00 +18°C° 0.1 mm 3 mps 762 mmHg 59%
    16:00 +18°C° 0.1 mm 3 mps 762 mmHg 60%
    17:00 +16°C° 0 mm 3 mps 762 mmHg 65%
    18:00 +14°C° 0 mm 3 mps 762 mmHg 70%
    19:00 +13°C° 0 mm 2 mps 762 mmHg 74%
    20:00 +12°C° 0 mm 2 mps 762 mmHg 74%
    21:00 +12°C° 0 mm 2 mps 762 mmHg 73%
    22:00 +10°C° 0 mm 2 mps 762 mmHg 72%
    23:00 +10°C° 0 mm 1 mps 762 mmHg 73%
    Show more